Location: Brachbach
(49.1847°N, 9.7240°E)
Time: 21:47:51
(UTC+00:00)

Oscar 19 - Visible Passes

Search period start: 16 March 2026 00:00
Search period end: 26 March 2026 00:00
Orbit: 769 x 787 km, 98.9° (Epoch: 16 March)

Date Brightness Start Highest point End Pass type
(mag) Time Alt. Az. Time Alt. Az. Time Alt. Az.
16 Mar 14.5 04:53:37 10° ENE 04:55:04 11° E 04:56:32 10° ESE visible
16 Mar 11.9 17:50:41 10° S 17:55:38 48° W 18:00:37 10° NNW visible
17 Mar 13.7 18:59:53 10° WSW 19:02:29 14° W 19:05:05 10° WNW visible
18 Mar 13.1 18:24:48 10° SSW 18:29:03 26° W 18:33:20 10° NW visible
19 Mar 14.4 04:53:50 10° ENE 04:55:14 11° E 04:56:39 10° ESE visible
20 Mar 13.7 19:00:02 10° WSW 19:02:39 14° W 19:05:16 10° WNW visible
21 Mar 13.1 18:24:58 10° SSW 18:29:13 26° W 18:33:30 10° NW visible
23 Mar 13.7 19:00:11 10° WSW 19:02:48 14° W 19:05:27 10° NW visible
24 Mar 13.1 18:25:07 10° SSW 18:29:23 26° W 18:33:40 10° NW visible
